Showing default

FENGYUN 2G, 40367

Orbit data source: Space-Track

FENGYUN 2G, 40367 is a payload satellite owned by CNMSC (CN) in GEO that was launched on Wed, 31 Dec 2014 UTC via a CHANG ZHENG 3A launch vehicle from the Xichang Space Center, China (XSC). Payload-class satellites include a variety of spacecraft equipped with specific instruments for various scientific and technological missions. These include communications satellites like Starlink; space stations such as the ISS; scientific satellites like the Hubble; Earth observation satellites from companies like Planet Labs, Umbra, and HawkEye 360; GPS; miniature CubeSats for education and research; and military/defense satellites.

Not visible in the next 10 days
Identifier
40367, 2014-090A
Orbit
GEO
Country
Flag of CNCN / PRC
Related business
Manufacturer
SISE
Mission
Operational Civil Weather
Bus & Motor
FY-2, SHANXI AKM
Mass
1,390 kg wet, ~600 kg dry
Launch date (UTC)
2014-12-31 (11 years ago)
Launch vehicle
CHANG ZHENG 3A
Launch site
Xichang Space Center, China (XSC)
Object type
Payload
Rocket body
Debris
Shape & HBR
Cyl, 1.5 m
Radar Cross Section
6.680 m², Large (>1 m²)

Expand to show TLE details & history
Last TLE update: 13 hours ago

TLE from 13 hours ago
0 FENGYUN 2G
1 40367U 14090A   26061.62816638 -.00000317  00000-0  00000+0 0  9990
2 40367   5.3692  74.1056 0002028 153.4685 258.6220  1.00275077 40934
Epoch: 2026-03-02T15:04Z
TLE epoch observation values (Epoch: 2026-03-02T15:04:33.575Z)
Latitude
4.22593°
Longitude
99.51864°
Altitude
35,786.377 km
Speed
3.075 km/s
True Right ascension
08h 24m 18s
True Declination
4° 13' 18"
Sunlit
Object was in daylight at epoch
Visualization orbit readout
Latitude
Unknown
Longitude
Unknown
Altitude
Unknown
Speed
Unknown
Apparent Right ascension
Unknown
Apparent Declination
Unknown
Sunlit
N/A
Visualization observer readout
Local Sidereal Time
07:34:47
Azimuth
Unknown
Elevation
Unknown
Doppler factor
Unknown
Orbital elements
Apogee altitude
35,795.28 km
Perigee altitude
35,778.178 km
Semi-major axis
42,164.866 km
Eccentricity
0.0002
Inclination
5.3692°
RAAN
74.1056°
Arg. of periapsis
153.4685°
True anomaly
258.59922°
Mean anomaly
258.622°
Eccentric anomaly
258.61061°
Mean motion
0.25068 °/min
Orbital period
1,436.1 mins
BSTAR
0
Loading maneuver chart data...
Computing Atmospheric mass density...
Loading historical data...
Loading historical data...
Loading historical data...
Loading historical data...
Loading historical data...
Loading historical data...
Loading historical data...
Other satellites on launch #90 in the year 2014 (2014-12-31 UTC)

Documentation

Showing up to 5 results
|